Location: Unspecified
(0.0000°N, 1.0000°E)
Time: 09:00:47
(UTC+02:00)

Daily predictions for brighter satellites

Satellite Brightness Start Highest point End
(mag) Time Altitude Azimuth Time Altitude Azimuth Time Altitude Azimuth
ARIANE 5 R/B 1.9 20:01:12 10° WNW 20:03:37 60° N 20:12:13 10° E
SL-16 R/B 3.0 20:06:50 10° SSW 20:12:24 59° WNW 20:17:57 10° N
Delta 142 4.3 20:13:53 10° WNW 20:18:28 62° SSW 20:24:24 10° SE
Cosmos 1892 4.0 20:17:06 10° NE 20:20:01 21° E 20:22:55 10° SE
Cosmos 2227 Rocket 2.8 20:16:46 10° NNW 20:22:19 62° WSW 20:27:52 10° S
Cosmos 1707 Rocket 3.7 20:25:13 10° S 20:29:42 84° W 20:34:08 10° N
Cosmos 1933 Rocket 4.1 20:26:38 10° NNW 20:31:01 64° W 20:35:23 10° S
Cosmos 2082 4.3 20:25:34 10° NNW 20:31:06 61° WSW 20:36:42 10° S
ARIANE 5 R/B 1.7 20:31:36 10° W 20:33:53 86° N 20:40:12 12° E
Tiangong 1 3.3 20:31:44 10° WSW 20:34:10 24° NW 20:36:34 10° NNE
CZ-4 R/B 4.2 20:35:51 10° SW 20:38:28 17° WSW 20:41:05 10° WNW
Cosmos 1634 Rocket 4.0 20:32:32 10° S 20:38:46 70° E 20:45:02 10° N
Cosmos 1869 3.2 20:35:11 10° S 20:39:07 87° E 20:43:03 10° N
Cosmos 1862 Rocket 4.4 20:39:58 10° SSE 20:43:50 30° E 20:47:43 10° NNE
Nadezhda 4 Rocket 4.1 20:40:05 10° N 20:46:16 57° E 20:52:27 10° SSE
FENGYUN 3A 4.5 20:42:00 11° SE 20:46:23 29° ENE 20:50:56 10° NNE
ARIANE 5 DEB (SYLDA) 3.6 20:37:33 10° W 20:47:26 81° S 20:49:57 22° E
Meteor 2-3 Rocket 3.7 20:41:48 10° N 20:47:34 73° E 20:53:22 10° S
ARIANE 5 DEB (SYLDA) 3.2 20:46:55 10° WSW 20:48:52 21° S 20:49:19 19° SSE
SJ-6B 3.6 20:49:50 21° ESE 20:51:37 31° ENE 20:55:06 10° NNE
NOSS 3-1 (C) 3.3 20:50:11 10° S 20:55:35 49° ESE 21:00:58 10° NE
Gbstr 26 Del rocket 4.0 20:49:56 10° SW 20:55:54 90° W 21:03:14 10° NE
ALOS 2.7 20:52:47 16° SE 20:56:06 39° ENE 21:00:26 10° N
OTV 4 2.3 20:55:20 10° N 20:57:16 17° NE 20:57:16 17° NE
NOAA 12 4.0 20:52:12 10° SSE 20:57:28 76° ENE 21:02:40 10° N
Delta 2 Rocket 3.9 20:53:40 10° SW 20:59:19 69° SE 21:03:10 18° ENE
Cosmos 1092 Rocket 4.1 20:55:46 10° NNE 21:01:53 53° E 21:07:59 10° SSE
ARIANE 5 R/B 0.8 21:00:51 10° W 21:02:41 83° N 21:02:44 81° NE
GPS 2-15 Rocket1 4.0 20:59:03 10° NW 21:03:20 37° NNE 21:05:14 26° ENE
GRACE-1 4.4 21:01:01 10° NNE 21:03:03 41° NE 21:03:03 41° NE
GRACE-2 4.5 21:01:23 10° NNE 21:03:19 38° NE 21:03:19 38° NE
FREGAT/IRIS 2.4 21:06:12 45° SSE 21:07:01 79° E 21:10:02 10° N
Cosmos 1869 Rocket 3.5 21:06:57 10° N 21:11:23 87° E 21:15:24 12° S
Cosmos 2279 Rocket 3.9 21:06:48 10° S 21:13:04 78° E 21:19:18 10° N
NOSS 3-1 (A) 3.3 21:07:50 10° S 21:13:15 48° ESE 21:18:35 10° NE
Cosmos 1400 Rocket 4.0 21:09:52 10° NNW 21:13:41 43° W 21:17:33 10° SSW
Maqsat-B 4.0 21:11:13 10° WNW 21:14:40 38° NNE 21:18:02 22° ENE
Meteor 1-26 Rocket 4.4 21:15:24 22° SSE 21:18:39 44° E 21:24:00 10° NNE
Lacrosse 4 Rocket 3.8 21:17:01 10° NNE 21:17:41 13° NE 21:17:41 13° NE
Hubble Space Telescope 1.5 21:16:44 10° WNW 21:20:42 44° SSW 21:21:28 39° S
FUSE 3.9 21:16:20 10° WNW 21:21:42 78° NNE 21:23:04 50° ESE
Helios 1B rocket 2.3 21:19:44 10° NNE 21:23:31 65° ENE 21:23:31 65° ENE
ARIANE 5 DEB (SYLDA) 4.2 21:21:05 10° WSW 21:24:57 58° S 21:27:49 36° ESE
Cosmos 1933 3.7 21:23:08 10° SSW 21:27:10 65° W 21:31:09 10° N
Cosmos 2360 Rocket 4.3 21:26:06 10° SW 21:30:47 27° WNW 21:35:28 10° NNW
ARIANE 5 DEB (SYLDA) 2.7 21:25:50 10° W 21:32:25 88° N 21:33:26 56° E
Cosmos 2195 Rocket 4.4 21:27:37 10° N 21:33:44 67° E 21:35:42 44° SSE
Cosmos 1315 Rocket 3.6 21:30:44 10° NNW 21:34:33 48° W 21:35:49 34° SW
GPS 2-04 Rocket1 3.7 21:34:55 10° NW 21:37:17 40° NW 21:37:17 40° NW
COSMOS 2428 3.0 21:33:43 10° SSW 21:39:20 65° WNW 21:44:57 10° N
Cosmos 1627 Rocket 4.3 21:34:48 10° N 21:40:53 76° E 21:42:18 54° SSE
Resurs 01 Rocket 3.1 21:58:02 31° NNW 21:58:02 31° NNW 22:00:21 10° NNW
Ariane H10+ 3.7 22:26:03 10° WNW 22:27:45 30° WNW 22:27:45 30° WNW
